TIANWANG 1A (TW-1A)
1 40928U 15051D   19288.84149230  .00002366  00000-0  58608-4 0  9992
2 40928  97.1368 317.4889 0011352  10.1764  76.5413 15.41344053227524
LAPAN A2
1 40931U 15052B   19287.48182986  .00000614  00000-0 -36357-5 0  9994
2 40931   6.0032 296.6562 0014041  19.5481 340.4972 14.76616209218703
LQSAT
1 40958U 15057A   19288.77360054  .00000014  00000-0  98819-5 0  9999
2 40958  97.8872 354.6822 0017386 215.4890 144.5163 14.73091822216339
CHUBUSAT 2
1 41338U 16012B   19288.85961186 +.00000316 +00000-0 +17778-4 0  9995
2 41338 031.0027 107.4219 0013838 204.4379 155.5601 15.00192846200821
CHUBUSAT 3
1 41339U 16012C   19288.81526197  .00000299  00000-0  16459-4 0  9996
2 41339  31.0096 105.6440 0013510 211.5504 148.4336 15.00365004200813
OUFTI-1
1 41458U 16025C   19288.79155427 +.00001011 +00000-0 +55562-4 0  9994
2 41458 098.1008 021.6927 0164648 316.9488 041.8952 15.06083287190497
E-STAR-2
1 41459U 16025D   19288.90340177 +.00000783 +00000-0 +44425-4 0  9997
2 41459 098.1007 021.4019 0165827 318.1616 040.6991 15.05706418190480
AAUSAT 4
1 41460U 16025E   19288.79340816  .00001579  00000-0  82733-4 0  9994
2 41460  98.0967  22.8380 0155882 309.8451  48.9113 15.07689539190614
NUSAT 1
1 41557U 16033B   19288.89135905 +.00001131 +00000-0 +44836-4 0  9998
2 41557 097.4149 015.6927 0012447 232.3997 127.6113 15.27441468188281
BEESAT 4
1 41619U 16040W   19288.74608266 +.00001153 +00000-0 +51396-4 0  9997
2 41619 097.3551 348.6848 0010340 332.6375 027.4316 15.23368331171985
PRATHAM
1 41783U 16059A   19288.74061582 +.00000057 +00000-0 +20298-4 0  9992
2 41783 098.0543 345.6118 0033715 011.9861 348.2135 14.63013989162950
ALSAT 1N
1 41789U 16059G   19288.90093949 +.00000074 +00000-0 +23005-4 0  9996
2 41789 098.0579 348.0266 0028342 000.8078 359.3139 14.64267634163095
NAYIF 1
1 42017U 17008BX  19288.74027014 +.00001184 +00000-0 +49152-4 0  9992
2 42017 097.3916 354.5496 0007890 106.5336 253.6770 15.25790530148072
MAX VALIER SAT
1 42778U 17036P   19288.71773812 +.00000741 +00000-0 +35203-4 0  9998
2 42778 097.3415 343.6870 0012986 159.4266 200.7496 15.22181895128347
